Showing default

TECHNOSAT, 42829

Orbit data source: Space-Track

TECHNOSAT, 42829 is a payload satellite owned by TUB (DE) in SSO that was launched on Fri, 14 Jul 2017 UTC via a SOYUZ-2-1A launch vehicle from the Tyuratam Missile And Space Complex (TTMTR). Payloads include a variety of satellites, spacecraft, and rockets equipped with specific instruments for various scientific and technological missions. These include communications satellites like Starlink; space stations such as the ISS; scientific satellites like the Hubble; Earth observation satellites from companies like Planet Labs, Umbra, and HawkEye 360; GPS; miniature CubeSats for education and research; and military/defense satellites.

Loading next visibility...
TECHNOSAT details
Identifier
42829, 2017-042E
Orbit
SSO
Last TLE update10 hours ago
Origin
Flag of DETUB (DE / GER)
ManufacturerTUB
MissionOperational Amateur Technology
Bus & MotorTUBIX20, Unknown motor
Mass18 kg wet, 18 kg dry
Launch date (UTC)
2017-07-14 (7 years ago)
Launch vehicle
SOYUZ-2-1A
Launch site
Tyuratam Missile And Space Complex (TTMTR)
Object type
Payload
Rocket body
Debris
Shape & HBROct Cyl, 0.45 m
Radar Cross Section0.175 m², Medium (>0.1 m² and < 1m²)

Expand to show TLE details & history

TLE from 10 hours ago
0 TECHNOSAT
1 42829U 17042E   24361.02718426  .00008177  00000-0  66730-3 0  9993
2 42829  97.3859 171.8240 0013835 138.8986 221.3283 14.99598196405892
Epoch: 2024-12-26T00:39Z
Definitive object data (Epoch: 2024-12-26T00:39:08.72Z)
Latitude0.00001°
Longitude67.02519°
Altitude578.424 km
Speed7.567 km/s
True Right ascension11h 27m 17s
True Declination0° 00' 00"
Sunlit
Object was in daylight at TLE epoch
Visualization TLE readout
Latitude-23.52631°
Longitude70.61832°
Altitude586.127 km
Speed7.561 km/s
Apparent Right ascension14h 59m 26s
Apparent Declination-62° 56' 08"
Sunlit
Object is in daylight
Visualization observer readout
Local Sidereal Time09:30:28
Azimuth148.033° SSE
Elevation-31.62°
Doppler factor1
Orbital elements
Apogee altitude574.735 km
Perigee altitude555.523 km
Semi-major axis6,943.266 km
Eccentricity0.0013835
Inclination97.3859°
RAAN171.824°
Arg. of periapsis138.8986°
True anomaly221.22374°
Mean anomaly221.3283°
Eccentric anomaly221.27601°
Mean motion3.75144 °/min
BSTAR0.0006673
Orbital period95.96 mins
Loading maneuver chart data...

TECHNOSAT Visibility forecast

Observer location: undefined°, undefined

Span
Click to sort rows by Start time (UTC) header in descending order
Start Az.
Max El. time (UTC)
Max El. Az.
Max El.
End time (UTC)
End Az.
5 mins2024-12-26 12:00:20.659Z196.815° SSW2024-12-26 12:02:20.659Z263.28° W37.866°2024-12-26 12:05:20.659Z333.455° NNW
4 mins2024-12-26 23:40:20.659Z62.039° ENE2024-12-26 23:42:20.659Z103.531° ESE20°2024-12-26 23:44:20.659Z138.476° SSE
4 mins2024-12-27 01:15:20.659Z327.105° NNW2024-12-27 01:17:20.659Z281.165° WNW23.292°2024-12-27 01:19:20.659Z242.896° WSW
|